Year,Month,Day,Hour,Minute,Value (Times are PST for temperature in C)
2015,11,21,00,01,5.30
2015,11,21,00,02,5.30
2015,11,21,00,03,5.30
2015,11,21,00,04,5.30
2015,11,21,00,06,5.30
2015,11,21,00,07,5.30
2015,11,21,00,09,5.30
2015,11,21,00,11,5.30
2015,11,21,00,12,5.30
2015,11,21,00,13,5.30
2015,11,21,00,14,5.30
2015,11,21,00,16,5.30
2015,11,21,00,17,5.30
2015,11,21,00,18,5.30
2015,11,21,00,19,5.30
2015,11,21,00,21,5.30
2015,11,21,00,22,5.30
2015,11,21,00,23,5.30
2015,11,21,00,24,5.30
2015,11,21,00,26,5.30
2015,11,21,00,27,5.30
2015,11,21,00,28,5.30
2015,11,21,00,29,5.30
2015,11,21,00,31,5.30
2015,11,21,00,32,5.30
2015,11,21,00,33,5.30
2015,11,21,00,34,5.30
2015,11,21,00,36,5.30
2015,11,21,00,37,5.30
2015,11,21,00,38,5.30
2015,11,21,00,39,5.30
2015,11,21,00,41,5.30
2015,11,21,00,42,5.30
2015,11,21,00,43,5.30
2015,11,21,00,44,5.30
2015,11,21,00,46,5.30
2015,11,21,00,47,5.30
2015,11,21,00,48,5.30
2015,11,21,00,49,5.30
2015,11,21,00,51,5.30
2015,11,21,00,52,5.30
2015,11,21,00,53,5.30
2015,11,21,00,54,5.30
2015,11,21,00,56,5.30
2015,11,21,00,57,5.30
2015,11,21,00,58,5.30
2015,11,21,00,59,5.30
2015,11,21,01,01,5.30
2015,11,21,01,02,5.30
2015,11,21,01,03,5.30
2015,11,21,01,04,5.30
2015,11,21,01,06,5.30
2015,11,21,01,07,5.30
2015,11,21,01,08,5.30
2015,11,21,01,09,5.30
2015,11,21,01,11,5.30
2015,11,21,01,12,5.30
2015,11,21,01,13,5.30
2015,11,21,01,14,5.30
2015,11,21,01,16,5.30
2015,11,21,01,17,5.30
2015,11,21,01,18,5.20
2015,11,21,01,19,5.20
2015,11,21,01,21,5.20
2015,11,21,01,22,5.20
2015,11,21,01,23,5.10
2015,11,21,01,24,5.10
2015,11,21,01,26,5.10
2015,11,21,01,27,5.10
2015,11,21,01,28,5.10
2015,11,21,01,29,5.10
2015,11,21,01,31,5.10
2015,11,21,01,32,5.10
2015,11,21,01,33,5.10
2015,11,21,01,34,5.10
2015,11,21,01,36,5.10
2015,11,21,01,37,5.10
2015,11,21,01,38,5.10
2015,11,21,01,39,5.10
2015,11,21,01,41,5.10
2015,11,21,01,42,4.90
2015,11,21,01,43,4.90
2015,11,21,01,44,4.90
2015,11,21,01,45,4.90
2015,11,21,01,46,4.90
2015,11,21,01,47,4.90
2015,11,21,01,48,4.90
2015,11,21,01,49,5.10
2015,11,21,01,50,5.10
2015,11,21,01,51,5.10
2015,11,21,01,52,5.10
2015,11,21,01,53,5.10
2015,11,21,01,54,5.10
2015,11,21,01,55,4.90
2015,11,21,01,56,4.90
2015,11,21,01,57,4.90
2015,11,21,01,58,4.90
2015,11,21,01,59,4.90
2015,11,21,02,00,4.90
2015,11,21,02,01,4.90
2015,11,21,02,02,4.90
2015,11,21,02,03,4.90
2015,11,21,02,04,4.90
2015,11,21,02,05,4.90
2015,11,21,02,06,4.90
2015,11,21,02,07,4.90
2015,11,21,02,08,4.90
2015,11,21,02,09,4.90
2015,11,21,02,10,4.90
2015,11,21,02,11,4.90
2015,11,21,02,12,4.90
2015,11,21,02,13,4.90
2015,11,21,02,14,4.90
2015,11,21,02,16,4.90
2015,11,21,02,17,4.90
2015,11,21,02,18,4.90
2015,11,21,02,19,4.90
2015,11,21,02,21,4.90
2015,11,21,02,22,4.90
2015,11,21,02,23,4.90
2015,11,21,02,24,4.90
2015,11,21,02,26,4.90
2015,11,21,02,27,4.90
2015,11,21,02,28,4.90
2015,11,21,02,29,4.90
2015,11,21,02,31,4.90
2015,11,21,02,32,4.90
2015,11,21,02,33,4.90
2015,11,21,02,34,4.90
2015,11,21,02,36,4.90
2015,11,21,02,37,4.90
2015,11,21,02,38,4.90
2015,11,21,02,39,4.90
2015,11,21,03,24,4.90
2015,11,21,03,25,4.90
2015,11,21,03,26,4.90
2015,11,21,03,27,4.90
2015,11,21,03,28,4.90
2015,11,21,03,29,4.90
2015,11,21,03,30,4.90
2015,11,21,03,31,4.90
2015,11,21,03,32,4.90
2015,11,21,03,33,4.90
2015,11,21,03,34,4.90
2015,11,21,03,35,4.90
2015,11,21,03,37,4.90
2015,11,21,03,38,4.90
2015,11,21,03,39,4.90
2015,11,21,03,41,4.90
2015,11,21,03,42,4.90
2015,11,21,03,43,4.90
2015,11,21,03,44,4.90
2015,11,21,03,46,4.90
2015,11,21,03,47,4.90
2015,11,21,03,48,4.90
2015,11,21,03,49,4.90
2015,11,21,03,51,4.90
2015,11,21,03,52,4.90
2015,11,21,03,53,4.90
2015,11,21,03,54,4.90
2015,11,21,03,56,4.90
2015,11,21,03,57,4.90
2015,11,21,03,58,4.90
2015,11,21,03,59,4.90
2015,11,21,04,01,4.90
2015,11,21,04,02,4.90
2015,11,21,04,03,4.90
2015,11,21,04,04,4.90
2015,11,21,04,06,4.90
2015,11,21,04,07,4.90
2015,11,21,04,08,4.90
2015,11,21,04,09,4.90
2015,11,21,04,11,4.90
2015,11,21,04,12,4.90
2015,11,21,04,13,4.90
2015,11,21,04,14,4.90
2015,11,21,04,16,4.90
2015,11,21,04,17,4.90
2015,11,21,04,18,4.90
2015,11,21,04,19,4.90
2015,11,21,04,21,4.90
2015,11,21,04,22,4.90
2015,11,21,04,23,4.90
2015,11,21,04,24,4.90
2015,11,21,04,26,4.90
2015,11,21,04,27,4.90
2015,11,21,04,28,4.90
2015,11,21,04,29,4.90
2015,11,21,04,31,4.90
2015,11,21,04,32,4.90
2015,11,21,04,33,4.90
2015,11,21,04,34,4.90
2015,11,21,04,36,4.90
2015,11,21,04,37,4.90
2015,11,21,04,38,4.90
2015,11,21,04,39,4.90
2015,11,21,04,41,4.90
2015,11,21,04,42,4.80
2015,11,21,04,43,4.90
2015,11,21,04,44,4.90
2015,11,21,04,46,4.90
2015,11,21,04,47,4.90
2015,11,21,04,48,4.90
2015,11,21,04,49,4.90
2015,11,21,04,51,4.90
2015,11,21,04,52,4.90
2015,11,21,04,53,4.90
2015,11,21,04,54,4.90
2015,11,21,04,56,4.90
2015,11,21,04,57,4.90
2015,11,21,04,58,4.90
2015,11,21,04,59,4.90
2015,11,21,05,01,4.90
2015,11,21,05,02,4.90
2015,11,21,05,03,4.90
2015,11,21,05,04,4.90
2015,11,21,05,06,4.90
2015,11,21,05,07,4.90
2015,11,21,05,08,4.90
2015,11,21,05,09,4.90
2015,11,21,05,11,4.90
2015,11,21,05,12,4.90
2015,11,21,05,13,4.90
2015,11,21,05,14,4.90
2015,11,21,05,16,4.90
2015,11,21,05,17,4.90
2015,11,21,05,18,4.90
2015,11,21,05,19,4.90
2015,11,21,05,21,4.90
2015,11,21,05,22,4.90
2015,11,21,05,23,4.90
2015,11,21,05,24,4.80
2015,11,21,05,26,4.80
2015,11,21,05,27,4.90
2015,11,21,05,28,4.90
2015,11,21,05,29,4.90
2015,11,21,05,31,4.90
2015,11,21,05,32,4.90
2015,11,21,05,33,4.90
2015,11,21,05,34,4.90
2015,11,21,05,36,4.90
2015,11,21,05,37,4.90
2015,11,21,05,38,4.90
2015,11,21,05,39,4.90
2015,11,21,05,41,4.90
2015,11,21,05,42,4.90
2015,11,21,05,43,4.90
2015,11,21,05,44,4.90
2015,11,21,05,46,4.90
2015,11,21,05,47,4.90
2015,11,21,05,48,4.90
2015,11,21,05,49,4.80
2015,11,21,05,50,4.80
2015,11,21,05,51,4.80
2015,11,21,05,52,4.80
2015,11,21,05,53,4.80
2015,11,21,05,54,4.80
2015,11,21,05,55,4.80
2015,11,21,05,56,4.80
2015,11,21,05,57,4.80
2015,11,21,05,58,4.80
2015,11,21,05,59,4.80
2015,11,21,06,00,4.80
2015,11,21,06,01,4.80
2015,11,21,06,02,4.80
2015,11,21,06,03,4.80
2015,11,21,06,04,4.80
2015,11,21,06,06,4.80
2015,11,21,06,07,4.80
2015,11,21,06,08,4.80
2015,11,21,06,09,4.80
2015,11,21,06,10,4.80
2015,11,21,06,11,4.80
2015,11,21,06,12,4.80
2015,11,21,06,13,4.80
2015,11,21,06,14,4.80
2015,11,21,06,15,4.80
2015,11,21,06,16,4.80
2015,11,21,06,17,4.80
2015,11,21,06,18,4.80
2015,11,21,06,19,4.70
2015,11,21,06,20,4.70
2015,11,21,06,22,4.70
2015,11,21,06,23,4.70
2015,11,21,06,24,4.70
2015,11,21,06,26,4.60
2015,11,21,06,27,4.60
2015,11,21,06,28,4.60
2015,11,21,06,29,4.60
2015,11,21,06,31,4.60
2015,11,21,06,32,4.60
2015,11,21,06,33,4.60
2015,11,21,06,34,4.60
2015,11,21,06,36,4.60
2015,11,21,06,37,4.60
2015,11,21,06,38,4.60
2015,11,21,06,39,4.60
2015,11,21,06,41,4.50
2015,11,21,06,42,4.50
2015,11,21,06,43,4.50
2015,11,21,06,44,4.50
2015,11,21,06,46,4.50
2015,11,21,06,47,4.50
2015,11,21,06,48,4.50
2015,11,21,06,49,4.50
2015,11,21,06,51,4.50
2015,11,21,06,52,4.50
2015,11,21,06,53,4.50
2015,11,21,06,54,4.50
2015,11,21,06,56,4.50
2015,11,21,06,57,4.50
2015,11,21,06,58,4.50
2015,11,21,06,59,4.50
2015,11,21,07,01,4.50
2015,11,21,07,02,4.50
2015,11,21,07,03,4.50
2015,11,21,07,04,4.60
2015,11,21,07,06,4.60
2015,11,21,07,07,4.60
2015,11,21,07,08,4.60
2015,11,21,07,09,4.60
2015,11,21,07,11,4.60
2015,11,21,07,12,4.60
2015,11,21,07,13,4.60
2015,11,21,07,14,4.60
2015,11,21,07,16,4.60
2015,11,21,07,17,4.60
2015,11,21,07,18,4.60
2015,11,21,07,19,4.60
2015,11,21,07,21,4.60
2015,11,21,07,22,4.60
2015,11,21,07,23,4.60
2015,11,21,07,24,4.60
2015,11,21,07,26,4.60
2015,11,21,07,27,4.60
2015,11,21,07,28,4.60
2015,11,21,07,29,4.60
2015,11,21,07,31,4.60
2015,11,21,07,32,4.60
2015,11,21,07,33,4.60
2015,11,21,07,34,4.60
2015,11,21,07,36,4.60
2015,11,21,07,37,4.60
2015,11,21,07,38,4.60
2015,11,21,07,39,4.60
2015,11,21,07,41,4.60
2015,11,21,07,42,4.60
2015,11,21,07,43,4.60
2015,11,21,07,44,4.60
2015,11,21,07,46,4.60
2015,11,21,07,47,4.60
2015,11,21,07,48,4.60
2015,11,21,07,49,4.60
2015,11,21,07,51,4.60
2015,11,21,07,52,4.60
2015,11,21,07,53,4.60
2015,11,21,07,54,4.60
2015,11,21,07,56,4.60
2015,11,21,07,57,4.60
2015,11,21,07,58,4.60
2015,11,21,07,59,4.60
2015,11,21,08,01,4.60
2015,11,21,08,02,4.60
2015,11,21,08,03,4.60
2015,11,21,08,04,4.60
2015,11,21,08,06,4.60
2015,11,21,08,07,4.60
2015,11,21,08,08,4.60
2015,11,21,08,09,4.60
2015,11,21,08,11,4.60
2015,11,21,08,12,4.60
2015,11,21,08,13,4.60
2015,11,21,08,14,4.60
2015,11,21,08,16,4.60
2015,11,21,08,17,4.60
2015,11,21,08,18,4.60
2015,11,21,08,19,4.60
2015,11,21,08,21,4.60
2015,11,21,08,22,4.60
2015,11,21,08,23,4.60
2015,11,21,08,24,4.60
2015,11,21,08,26,4.60
2015,11,21,08,27,4.60
2015,11,21,08,28,4.60
2015,11,21,08,29,4.60
2015,11,21,08,31,4.70
2015,11,21,08,32,4.70
2015,11,21,08,33,4.70
2015,11,21,08,34,4.70
2015,11,21,08,36,4.80
2015,11,21,08,37,4.80
2015,11,21,08,38,4.80
2015,11,21,08,39,4.80
2015,11,21,08,41,4.80
2015,11,21,08,42,4.80
2015,11,21,08,43,4.90
2015,11,21,08,44,4.90
2015,11,21,08,45,4.90
2015,11,21,08,46,4.90
2015,11,21,08,47,4.90
2015,11,21,08,48,4.90
2015,11,21,08,49,4.90
2015,11,21,08,51,4.90
2015,11,21,08,52,4.90
2015,11,21,08,53,4.90
2015,11,21,08,54,4.90
2015,11,21,08,55,4.90
2015,11,21,08,56,4.90
2015,11,21,08,57,4.90
2015,11,21,08,58,4.90
2015,11,21,08,59,4.90
2015,11,21,09,00,4.90
2015,11,21,09,01,4.90
2015,11,21,09,02,4.90
2015,11,21,09,03,4.90
2015,11,21,09,04,4.90
2015,11,21,09,05,4.90
2015,11,21,09,07,4.90
2015,11,21,09,08,4.90
2015,11,21,09,09,4.90
2015,11,21,09,10,4.90
2015,11,21,09,11,4.90
2015,11,21,09,12,4.90
2015,11,21,09,13,4.90
2015,11,21,09,14,4.90
2015,11,21,09,16,4.90
2015,11,21,09,17,4.90
2015,11,21,09,18,4.90
2015,11,21,09,19,5.10
2015,11,21,09,21,5.10
2015,11,21,09,22,5.10
2015,11,21,09,23,5.10
2015,11,21,09,24,5.10
2015,11,21,09,26,5.10
2015,11,21,09,27,5.10
2015,11,21,09,28,5.10
2015,11,21,09,29,5.10
2015,11,21,09,31,5.10
2015,11,21,09,32,5.20
2015,11,21,09,33,5.20
2015,11,21,09,34,5.20
2015,11,21,09,36,5.20
2015,11,21,09,37,5.20
2015,11,21,09,38,5.20
2015,11,21,09,39,5.20
2015,11,21,09,41,5.20
2015,11,21,09,42,5.30
2015,11,21,09,43,5.30
2015,11,21,09,44,5.30
2015,11,21,09,46,5.30
2015,11,21,09,47,5.30
2015,11,21,09,48,5.30
2015,11,21,09,49,5.30
2015,11,21,09,51,5.30
2015,11,21,09,52,5.30
2015,11,21,09,53,5.30
2015,11,21,09,54,5.30
2015,11,21,09,56,5.30
2015,11,21,09,57,5.30
2015,11,21,09,58,5.30
2015,11,21,09,59,5.30
2015,11,21,10,01,5.40
2015,11,21,10,02,5.40
2015,11,21,10,03,5.40
2015,11,21,10,04,5.40
2015,11,21,10,06,5.40
2015,11,21,10,07,5.40
2015,11,21,10,16,5.40
2015,11,21,10,17,5.50
2015,11,21,10,18,5.50
2015,11,21,10,19,5.50
2015,11,21,10,21,5.50
2015,11,21,10,22,5.50
2015,11,21,10,23,5.50
2015,11,21,10,24,5.50
2015,11,21,10,26,5.50
2015,11,21,10,27,5.60
2015,11,21,10,28,5.60
2015,11,21,10,29,5.60
2015,11,21,10,31,5.60
2015,11,21,10,32,5.60
2015,11,21,10,33,5.60
2015,11,21,10,34,5.60
2015,11,21,10,36,5.70
2015,11,21,10,37,5.70
2015,11,21,10,38,5.70
2015,11,21,10,39,5.70
2015,11,21,10,41,5.70
2015,11,21,10,42,5.70
2015,11,21,10,43,5.70
2015,11,21,10,44,5.70
2015,11,21,10,46,5.70
2015,11,21,10,47,5.70
2015,11,21,10,48,5.70
2015,11,21,10,49,5.70
2015,11,21,10,51,5.80
2015,11,21,10,52,5.80
2015,11,21,10,53,5.80
2015,11,21,10,54,5.80
2015,11,21,10,56,5.80
2015,11,21,10,57,5.80
2015,11,21,10,58,5.80
2015,11,21,10,59,5.80
2015,11,21,11,01,5.90
2015,11,21,11,02,5.90
2015,11,21,11,03,5.90
2015,11,21,11,04,5.90
2015,11,21,11,06,5.90
2015,11,21,11,07,5.90
2015,11,21,11,08,5.90
2015,11,21,11,09,5.90
2015,11,21,11,11,6.00
2015,11,21,11,12,6.00
2015,11,21,11,13,6.00
2015,11,21,11,14,6.00
2015,11,21,11,16,6.10
2015,11,21,11,17,6.10
2015,11,21,11,18,6.10
2015,11,21,11,19,6.10
2015,11,21,11,21,6.10
2015,11,21,11,22,6.10
2015,11,21,11,23,6.20
2015,11,21,11,24,6.20
2015,11,21,11,26,6.20
2015,11,21,11,27,6.20
2015,11,21,11,28,6.20
2015,11,21,11,29,6.20
2015,11,21,11,31,6.20
2015,11,21,11,32,6.20
2015,11,21,11,33,6.20
2015,11,21,11,34,6.20
2015,11,21,11,36,6.20
2015,11,21,11,37,6.20
2015,11,21,11,38,6.20
2015,11,21,11,39,6.20
2015,11,21,11,41,6.20
2015,11,21,11,42,6.20
2015,11,21,11,43,6.20
2015,11,21,11,44,6.20
2015,11,21,11,46,6.20
2015,11,21,11,47,6.20
2015,11,21,11,48,6.20
2015,11,21,11,49,6.20
2015,11,21,11,51,6.30
2015,11,21,11,52,6.30
2015,11,21,11,53,6.30
2015,11,21,11,54,6.30
2015,11,21,11,56,6.30
2015,11,21,11,57,6.40
2015,11,21,11,58,6.40
2015,11,21,11,59,6.40
2015,11,21,12,01,6.40
2015,11,21,12,02,6.40
2015,11,21,12,03,6.40
2015,11,21,12,04,6.40
2015,11,21,12,06,6.40
2015,11,21,12,07,6.40
2015,11,21,12,08,6.40
2015,11,21,12,09,6.40
2015,11,21,12,10,6.40
2015,11,21,12,11,6.40
2015,11,21,12,12,6.40
2015,11,21,12,13,6.40
2015,11,21,12,14,6.40
2015,11,21,12,15,6.40
2015,11,21,12,16,6.40
2015,11,21,12,17,6.40
2015,11,21,12,18,6.60
2015,11,21,12,19,6.40
2015,11,21,12,20,6.40
2015,11,21,12,21,6.40
2015,11,21,12,22,6.40
2015,11,21,12,23,6.40
2015,11,21,12,24,6.60
2015,11,21,12,25,6.60
2015,11,21,12,26,6.60
2015,11,21,12,28,6.60
2015,11,21,12,29,6.60
2015,11,21,12,31,6.60
2015,11,21,12,32,6.60
2015,11,21,12,33,6.60
2015,11,21,12,34,6.60
2015,11,21,12,36,6.60
2015,11,21,12,37,6.60
2015,11,21,12,38,6.60
2015,11,21,12,39,6.60
2015,11,21,12,41,6.60
2015,11,21,12,42,6.60
2015,11,21,12,43,6.60
2015,11,21,12,44,6.60
2015,11,21,12,46,6.70
2015,11,21,12,47,6.70
2015,11,21,12,48,6.70
2015,11,21,12,49,6.70
2015,11,21,12,51,6.70
2015,11,21,12,52,6.70
2015,11,21,12,53,6.70
2015,11,21,12,54,6.70
2015,11,21,12,56,6.70
2015,11,21,12,57,6.70
2015,11,21,12,58,6.70
2015,11,21,12,59,6.80
2015,11,21,13,01,6.80
2015,11,21,13,02,6.80
2015,11,21,13,03,6.80
2015,11,21,13,04,6.80
2015,11,21,13,06,6.80
2015,11,21,13,07,6.80
2015,11,21,13,08,6.80
2015,11,21,13,09,6.80
2015,11,21,13,11,6.80
2015,11,21,13,12,6.80
2015,11,21,13,13,6.80
2015,11,21,13,14,6.80
2015,11,21,13,16,6.80
2015,11,21,13,17,6.80
2015,11,21,13,18,6.80
2015,11,21,13,19,6.80
2015,11,21,13,21,6.80
2015,11,21,13,22,6.80
2015,11,21,13,23,6.80
2015,11,21,13,24,6.80
2015,11,21,13,26,6.80
2015,11,21,13,27,6.80
2015,11,21,13,28,6.80
2015,11,21,13,29,6.80
2015,11,21,13,31,6.80
2015,11,21,13,32,6.80
2015,11,21,13,33,6.90
2015,11,21,13,34,6.90
2015,11,21,13,36,6.90
2015,11,21,13,37,6.90
2015,11,21,13,38,6.90
2015,11,21,13,39,6.90
2015,11,21,13,41,6.90
2015,11,21,13,42,6.90
2015,11,21,13,43,6.90
2015,11,21,13,44,6.90
2015,11,21,13,46,6.90
2015,11,21,13,47,6.90
2015,11,21,13,48,6.90
2015,11,21,13,49,6.90
2015,11,21,13,51,6.80
2015,11,21,13,52,6.80
2015,11,21,13,53,6.80
2015,11,21,13,54,6.80
2015,11,21,13,56,6.80
2015,11,21,13,57,6.90
2015,11,21,13,58,6.80
2015,11,21,13,59,6.80
2015,11,21,14,01,6.90
2015,11,21,14,02,6.90
2015,11,21,14,03,6.90
2015,11,21,14,04,6.90
2015,11,21,14,06,6.90
2015,11,21,14,07,6.90
2015,11,21,14,08,6.90
2015,11,21,14,09,6.90
2015,11,21,14,11,6.80
2015,11,21,14,12,6.80
2015,11,21,14,13,6.80
2015,11,21,14,14,6.80
2015,11,21,14,16,6.90
2015,11,21,14,17,6.90
2015,11,21,14,18,6.90
2015,11,21,14,19,6.90
2015,11,21,14,21,6.80
2015,11,21,14,22,6.80
2015,11,21,14,23,6.80
2015,11,21,14,24,6.80
2015,11,21,14,26,6.90
2015,11,21,14,27,6.90
2015,11,21,14,28,6.90
2015,11,21,14,29,6.90
2015,11,21,14,31,6.90
2015,11,21,14,32,6.90
2015,11,21,14,33,6.90
2015,11,21,14,34,6.90
2015,11,21,14,36,7.00
2015,11,21,14,37,7.00
2015,11,21,14,38,7.00
2015,11,21,14,39,7.00
2015,11,21,14,41,7.00
2015,11,21,14,42,7.00
2015,11,21,14,43,7.00
2015,11,21,14,44,7.00
2015,11,21,14,46,7.00
2015,11,21,14,47,7.00
2015,11,21,14,48,7.00
2015,11,21,14,49,7.00
2015,11,21,14,50,7.00
2015,11,21,14,51,7.00
2015,11,21,14,52,7.00
2015,11,21,14,53,7.00
2015,11,21,14,54,7.00
2015,11,21,14,55,7.00
2015,11,21,14,56,7.00
2015,11,21,14,57,7.00
2015,11,21,14,58,7.00
2015,11,21,14,59,6.90
2015,11,21,15,00,6.90
2015,11,21,15,01,6.90
2015,11,21,15,02,6.90
2015,11,21,15,03,6.90
2015,11,21,15,04,6.90
2015,11,21,15,06,6.90
2015,11,21,15,07,6.90
2015,11,21,15,08,6.90
2015,11,21,15,09,6.90
2015,11,21,15,10,6.90
2015,11,21,15,11,6.90
2015,11,21,15,13,6.90
2015,11,21,15,14,6.90
2015,11,21,15,16,6.90
2015,11,21,15,17,6.90
2015,11,21,15,18,6.90
2015,11,21,15,19,7.00
2015,11,21,15,21,6.90
2015,11,21,15,22,6.90
2015,11,21,15,23,6.90
2015,11,21,15,24,6.90
2015,11,21,15,26,6.90
2015,11,21,15,27,6.90
2015,11,21,15,28,6.90
2015,11,21,15,29,6.90
2015,11,21,15,31,6.90
2015,11,21,15,32,6.90
2015,11,21,15,33,6.90
2015,11,21,15,34,6.80
2015,11,21,15,36,6.80
2015,11,21,15,37,6.80
2015,11,21,15,38,6.90
2015,11,21,15,39,6.90
2015,11,21,15,41,6.90
2015,11,21,15,42,6.90
2015,11,21,15,43,6.90
2015,11,21,15,44,6.80
2015,11,21,15,46,6.80
2015,11,21,15,47,6.80
2015,11,21,15,48,6.80
2015,11,21,15,49,6.80
2015,11,21,15,51,6.80
2015,11,21,15,52,6.80
2015,11,21,15,53,6.80
2015,11,21,15,54,6.80
2015,11,21,15,56,6.80
2015,11,21,15,57,6.80
2015,11,21,15,58,6.80
2015,11,21,15,59,6.80
2015,11,21,16,01,6.80
2015,11,21,16,02,6.80
2015,11,21,16,03,6.80
2015,11,21,16,04,6.80
2015,11,21,16,06,6.80
2015,11,21,16,07,6.80
2015,11,21,16,08,6.80
2015,11,21,16,09,6.80
2015,11,21,16,11,6.80
2015,11,21,16,12,6.80
2015,11,21,16,13,6.80
2015,11,21,16,14,6.80
2015,11,21,16,16,6.80
2015,11,21,16,17,6.80
2015,11,21,16,18,6.80
2015,11,21,16,21,6.80
2015,11,21,16,22,6.80
2015,11,21,16,23,6.80
2015,11,21,16,24,6.80
2015,11,21,16,26,6.70
2015,11,21,16,27,6.70
2015,11,21,16,28,6.70
2015,11,21,16,29,6.70
2015,11,21,16,31,6.70
2015,11,21,16,32,6.70
2015,11,21,16,33,6.70
2015,11,21,16,34,6.70
2015,11,21,16,36,6.70
2015,11,21,16,37,6.70
2015,11,21,16,38,6.70
2015,11,21,16,39,6.70
2015,11,21,16,41,6.70
2015,11,21,16,42,6.70
2015,11,21,16,43,6.70
2015,11,21,16,44,6.70
2015,11,21,16,46,6.60
2015,11,21,16,47,6.70
2015,11,21,16,48,6.70
2015,11,21,16,49,6.70
2015,11,21,16,51,6.70
2015,11,21,16,52,6.70
2015,11,21,16,53,6.70
2015,11,21,16,54,6.70
2015,11,21,16,56,6.70
2015,11,21,16,57,6.70
2015,11,21,16,58,6.70
2015,11,21,16,59,6.70
2015,11,21,17,01,6.70
2015,11,21,17,02,6.70
2015,11,21,17,03,6.70
2015,11,21,17,04,6.60
2015,11,21,17,06,6.60
2015,11,21,17,07,6.60
2015,11,21,17,08,6.60
2015,11,21,17,09,6.60
2015,11,21,17,11,6.60
2015,11,21,17,12,6.60
2015,11,21,17,13,6.60
2015,11,21,17,14,6.60
2015,11,21,17,16,6.60
2015,11,21,17,17,6.60
2015,11,21,17,18,6.60
2015,11,21,17,19,6.60
2015,11,21,17,21,6.60
2015,11,21,17,22,6.60
2015,11,21,17,23,6.60
2015,11,21,17,24,6.60
2015,11,21,17,26,6.60
2015,11,21,17,27,6.60
2015,11,21,17,28,6.60
2015,11,21,17,29,6.60
2015,11,21,17,31,6.60
2015,11,21,17,32,6.60
2015,11,21,17,33,6.60
2015,11,21,17,34,6.60
2015,11,21,17,36,6.60
2015,11,21,17,37,6.60
2015,11,21,17,38,6.60
2015,11,21,17,39,6.60
2015,11,21,17,40,6.60
2015,11,21,17,41,6.60
2015,11,21,17,42,6.60
2015,11,21,17,43,6.60
2015,11,21,17,44,6.60
2015,11,21,17,45,6.60
2015,11,21,17,46,6.60
2015,11,21,17,47,6.60
2015,11,21,17,48,6.60
2015,11,21,17,49,6.40
2015,11,21,17,50,6.40
2015,11,21,17,51,6.40
2015,11,21,17,52,6.40
2015,11,21,17,53,6.40
2015,11,21,17,54,6.40
2015,11,21,17,55,6.40
2015,11,21,17,56,6.40
2015,11,21,17,57,6.40
2015,11,21,17,58,6.40
2015,11,21,17,59,6.40
2015,11,21,18,00,6.40
2015,11,21,18,02,6.40
2015,11,21,18,04,6.40
2015,11,21,18,06,6.40
2015,11,21,18,07,6.40
2015,11,21,18,08,6.40
2015,11,21,18,09,6.40
2015,11,21,18,11,6.40
2015,11,21,18,12,6.40
2015,11,21,18,13,6.40
2015,11,21,18,14,6.40
2015,11,21,18,16,6.40
2015,11,21,18,17,6.40
2015,11,21,18,18,6.40
2015,11,21,18,19,6.40
2015,11,21,18,21,6.30
2015,11,21,18,22,6.40
2015,11,21,18,23,6.40
2015,11,21,18,24,6.40
2015,11,21,18,26,6.40
2015,11,21,18,27,6.40
2015,11,21,18,28,6.40
2015,11,21,18,29,6.30
2015,11,21,18,31,6.40
2015,11,21,18,32,6.40
2015,11,21,18,33,6.40
2015,11,21,18,34,6.40
2015,11,21,18,36,6.40
2015,11,21,18,37,6.40
2015,11,21,18,38,6.40
2015,11,21,18,39,6.40
2015,11,21,18,41,6.30
2015,11,21,18,42,6.30
2015,11,21,18,43,6.30
2015,11,21,18,44,6.30
2015,11,21,18,46,6.20
2015,11,21,18,47,6.20
2015,11,21,18,48,6.20
2015,11,21,18,49,6.20
2015,11,21,18,51,6.20
2015,11,21,18,52,6.20
2015,11,21,18,53,6.10
2015,11,21,18,54,6.10
2015,11,21,18,56,6.10
2015,11,21,18,57,6.10
2015,11,21,18,58,6.10
2015,11,21,18,59,6.10
2015,11,21,19,01,6.00
2015,11,21,19,02,6.00
2015,11,21,19,03,6.00
2015,11,21,19,04,6.00
2015,11,21,19,06,6.00
2015,11,21,19,07,6.00
2015,11,21,19,08,6.00
2015,11,21,19,09,5.90
2015,11,21,19,11,5.90
2015,11,21,19,12,6.00
2015,11,21,19,13,6.00
2015,11,21,19,14,6.00
2015,11,21,19,16,6.00
2015,11,21,19,17,6.10
2015,11,21,19,18,6.10
2015,11,21,19,19,6.10
2015,11,21,19,21,6.20
2015,11,21,19,22,6.20
2015,11,21,19,23,6.20
2015,11,21,19,24,6.20
2015,11,21,19,26,6.20
2015,11,21,19,27,6.20
2015,11,21,19,28,6.20
2015,11,21,19,29,6.20
2015,11,21,19,31,6.30
2015,11,21,19,32,6.30
2015,11,21,19,33,6.30
2015,11,21,19,34,6.40
2015,11,21,19,36,6.40
2015,11,21,19,37,6.40
2015,11,21,19,38,6.40
2015,11,21,19,39,6.40
2015,11,21,19,41,6.40
2015,11,21,19,42,6.40
2015,11,21,19,43,6.40
2015,11,21,19,44,6.40
2015,11,21,19,46,6.40
2015,11,21,19,47,6.40
2015,11,21,19,48,6.40
2015,11,21,19,49,6.40
2015,11,21,19,51,6.40
2015,11,21,19,52,6.40
2015,11,21,19,53,6.40
2015,11,21,19,54,6.40
2015,11,21,19,56,6.40
2015,11,21,19,57,6.40
2015,11,21,19,58,6.40
2015,11,21,19,59,6.40
2015,11,21,20,01,6.40
2015,11,21,20,02,6.40
2015,11,21,20,03,6.40
2015,11,21,20,04,6.40
2015,11,21,20,06,6.40
2015,11,21,20,07,6.40
2015,11,21,20,08,6.40
2015,11,21,20,09,6.40
2015,11,21,20,11,6.40
2015,11,21,20,12,6.40
2015,11,21,20,13,6.40
2015,11,21,20,14,6.40
2015,11,21,20,16,6.40
2015,11,21,20,17,6.40
2015,11,21,20,18,6.40
2015,11,21,20,19,6.40
2015,11,21,20,21,6.40
2015,11,21,20,22,6.40
2015,11,21,20,23,6.30
2015,11,21,20,24,6.30
2015,11,21,20,26,6.30
2015,11,21,20,27,6.30
2015,11,21,20,28,6.20
2015,11,21,20,29,6.20
2015,11,21,20,30,6.20
2015,11,21,20,31,6.20
2015,11,21,20,32,6.20
2015,11,21,20,33,6.20
2015,11,21,20,34,6.20
2015,11,21,20,35,6.20
2015,11,21,20,36,6.20
2015,11,21,20,37,6.20
2015,11,21,20,38,6.20
2015,11,21,20,39,6.20
2015,11,21,20,40,6.20
2015,11,21,20,41,6.20
2015,11,21,20,42,6.20
2015,11,21,20,43,6.20
2015,11,21,20,44,6.20
2015,11,21,20,45,6.20
2015,11,21,20,46,6.10
2015,11,21,20,47,6.20
2015,11,21,20,48,6.20
2015,11,21,20,49,6.20
2015,11,21,20,50,6.20
2015,11,21,20,51,6.20
2015,11,21,20,53,6.10
2015,11,21,20,54,6.10
2015,11,21,20,56,6.10
2015,11,21,20,57,6.10
2015,11,21,20,58,6.10
2015,11,21,20,59,6.10
2015,11,21,21,01,6.10
2015,11,21,21,02,6.10
2015,11,21,21,03,6.10
2015,11,21,21,04,6.10
2015,11,21,21,06,6.10
2015,11,21,21,07,6.10
2015,11,21,21,08,6.10
2015,11,21,21,09,6.10
2015,11,21,21,11,6.00
2015,11,21,21,12,6.00
2015,11,21,21,13,5.90
2015,11,21,21,14,5.90
2015,11,21,21,16,5.80
2015,11,21,21,17,5.70
2015,11,21,21,18,5.70
2015,11,21,21,19,5.70
2015,11,21,21,21,5.70
2015,11,21,21,22,5.60
2015,11,21,21,23,5.60
2015,11,21,21,24,5.50
2015,11,21,21,26,5.50
2015,11,21,21,27,5.40
2015,11,21,21,28,5.40
2015,11,21,21,29,5.40
2015,11,21,21,31,5.40
2015,11,21,21,32,5.40
2015,11,21,21,33,5.40
2015,11,21,21,34,5.40
2015,11,21,21,36,5.40
2015,11,21,21,37,5.40
2015,11,21,21,38,5.40
2015,11,21,21,39,5.40
2015,11,21,21,41,5.50
2015,11,21,21,42,5.50
2015,11,21,21,43,5.50
2015,11,21,21,44,5.60
2015,11,21,21,46,5.60
2015,11,21,21,47,5.60
2015,11,21,21,48,5.70
2015,11,21,21,49,5.70
2015,11,21,21,51,5.70
2015,11,21,21,52,5.70
2015,11,21,21,53,5.70
2015,11,21,21,54,5.70
2015,11,21,21,56,5.70
2015,11,21,21,57,5.70
2015,11,21,21,58,5.70
2015,11,21,21,59,5.70
2015,11,21,22,01,5.70
2015,11,21,22,02,5.70
2015,11,21,22,03,5.70
2015,11,21,22,04,5.70
2015,11,21,22,06,5.70
2015,11,21,22,07,5.70
2015,11,21,22,08,5.70
2015,11,21,22,09,5.70
2015,11,21,22,11,5.70
2015,11,21,22,12,5.70
2015,11,21,22,13,5.60
2015,11,21,22,14,5.60
2015,11,21,22,16,5.60
2015,11,21,22,17,5.60
2015,11,21,22,18,5.60
2015,11,21,22,19,5.60
2015,11,21,22,21,5.60
2015,11,21,22,22,5.60
2015,11,21,22,23,5.60
2015,11,21,22,24,5.60
2015,11,21,22,26,5.50
2015,11,21,22,27,5.50
2015,11,21,22,28,5.50
2015,11,21,22,29,5.50
2015,11,21,22,31,5.50
2015,11,21,22,32,5.50
2015,11,21,22,33,5.50
2015,11,21,22,34,5.40
2015,11,21,22,36,5.40
2015,11,21,22,37,5.40
2015,11,21,22,38,5.40
2015,11,21,22,39,5.40
2015,11,21,22,41,5.40
2015,11,21,22,42,5.30
2015,11,21,22,43,5.30
2015,11,21,22,44,5.40
2015,11,21,22,46,5.40
2015,11,21,22,47,5.40
2015,11,21,22,48,5.40
2015,11,21,22,49,5.40
2015,11,21,22,51,5.30
2015,11,21,22,52,5.30
2015,11,21,22,53,5.30
2015,11,21,22,54,5.30